This is the latest recevied weather packets stored in our database for station/object N8BAP. If no packets are shown the sender has not sent any weather packets the latest 10 day(s).
| Time | Temp. | Humidity | Pressure | Rain* | Wind** | Luminosity | Snow |
|---|---|---|---|---|---|---|---|
| 1778096683 | 15° C | 53% | 1017.7 hPa | 0 mm | - | 328 W/m² | - |
| 1778096379 | 15° C | 55% | 1017.6 hPa | 0 mm | - | 324 W/m² | - |
| 1778096076 | 15.56° C | 52% | 1017.4 hPa | 0 mm | - | 327 W/m² | - |
| 1778095773 | 16.11° C | 51% | 1017.4 hPa | 0 mm | - | 312 W/m² | - |
| 1778095470 | 16.67° C | 54% | 1017.6 hPa | 0 mm | - | 367 W/m² | - |
| 1778095167 | 16.11° C | 55% | 1017.3 hPa | 0 mm | - | 571 W/m² | - |
| 1778094863 | 16.11° C | 55% | 1017.4 hPa | 0 mm | - | 544 W/m² | - |
| 1778094560 | 16.11° C | 53% | 1017.5 hPa | 0 mm | - | 436 W/m² | - |
| 1778094257 | 15.56° C | 56% | 1017.3 hPa | 0 mm | - | 730 W/m² | - |
| 1778093954 | 15.56° C | 57% | 1017.5 hPa | 0 mm | - | 631 W/m² | - |
| 1778093651 | 16.11° C | 52% | 1017.5 hPa | 0 mm | - | 738 W/m² | - |
| 1778093348 | 16.67° C | 49% | 1017.4 hPa | 0 mm | - | 736 W/m² | - |
| 1778093045 | 15.56° C | 58% | 1017.5 hPa | 0 mm | - | 682 W/m² | - |
| 1778092742 | 15.56° C | 56% | 1017.5 hPa | 0 mm | - | 625 W/m² | - |
| 1778092437 | 15° C | 53% | 1017.2 hPa | 0 mm | - | 734 W/m² | - |
| 1778092135 | 15.56° C | 53% | 1017.7 hPa | 0 mm | - | 751 W/m² | - |
| 1778091832 | 15.56° C | 58% | 1017.5 hPa | 0 mm | - | 722 W/m² | - |
| 1778091529 | 15° C | 58% | 1017.4 hPa | 0 mm | - | 638 W/m² | - |
| 1778091227 | 15° C | 60% | 1017.2 hPa | 0 mm | - | 698 W/m² | - |
| 1778090924 | 15° C | 59% | 1017.6 hPa | 0 mm | - | 675 W/m² | - |
| 1778090619 | 15° C | 53% | 1017.7 hPa | 0 mm | - | 606 W/m² | - |
| 1778090316 | 14.44° C | 59% | 1017.9 hPa | 0 mm | - | 745 W/m² | - |
| 1778090013 | 14.44° C | 56% | 1017.9 hPa | 0 mm | - | 750 W/m² | - |
| 1778089710 | 15° C | 58% | 1017.7 hPa | 0 mm | - | 732 W/m² | - |
| 1778089407 | 14.44° C | 56% | 1017.8 hPa | 0 mm | - | 747 W/m² | - |
* Rain latest hour (hover to see other rain measurements)
** Current wind speed in m/s (hover to see current wind gust speed)